Time,TemperatureF,DewpointF,PressureIn,WindDirection,WindDirectionDegrees,WindSpeedMPH,WindSpeedGustMPH,Humidity,HourlyPrecipIn,Conditions,Clouds,dailyrainin,SoftwareType,DateUTC
2013-02-04 00:01:00,19.7,13.7,29.89,SSE,157,18.0,33.0,77,0.00,,SKC,0.00,VWS V14.01,2013-02-04 05:01:00,
2013-02-04 00:02:00,19.7,13.7,29.89,SSE,148,9.0,20.0,77,0.00,,SKC,0.00,VWS V14.01,2013-02-04 05:02:00,
2013-02-04 00:05:00,19.7,13.7,29.89,SW,233,13.0,34.0,77,0.00,,SKC,0.00,VWS V14.01,2013-02-04 05:05:00,
2013-02-04 00:11:00,19.7,14.0,29.89,WSW,243,15.0,40.0,78,0.00,,SKC,0.00,VWS V14.01,2013-02-04 05:11:00,
2013-02-04 00:17:00,19.5,13.8,29.88,West,277,2.0,20.0,78,0.00,,SKC,0.00,VWS V14.01,2013-02-04 05:17:00,
2013-02-04 00:23:00,19.4,13.7,29.88,ESE,108,6.0,24.0,78,0.00,,SKC,0.00,VWS V14.01,2013-02-04 05:23:00,
2013-02-04 00:29:00,19.2,13.8,29.88,NE,40,7.0,24.0,79,0.00,,SKC,0.00,VWS V14.01,2013-02-04 05:29:00,
2013-02-04 00:35:00,19.2,13.8,29.88,WSW,238,1.0,21.0,79,0.00,,SKC,0.00,VWS V14.01,2013-02-04 05:35:00,
2013-02-04 00:41:00,19.1,13.4,29.88,SE,144,13.0,21.0,78,0.00,,SKC,0.00,VWS V14.01,2013-02-04 05:41:00,
2013-02-04 00:47:00,19.1,13.1,29.88,West,263,12.0,15.0,77,0.00,,SKC,0.00,VWS V14.01,2013-02-04 05:47:00,
2013-02-04 00:53:00,18.8,12.2,29.88,SE,139,9.0,33.0,75,0.00,,SKC,0.00,VWS V14.01,2013-02-04 05:53:00,
2013-02-04 00:59:00,18.4,11.5,29.88,SSW,200,15.0,33.0,74,0.00,,SKC,0.00,VWS V14.01,2013-02-04 05:59:00,
2013-02-04 01:05:00,18.3,11.1,29.87,SE,136,16.0,32.0,73,0.00,,SKC,0.00,VWS V14.01,2013-02-04 06:05:00,
2013-02-04 01:11:00,18.1,10.9,29.87,WSW,240,9.0,32.0,73,0.00,,SKC,0.00,VWS V14.01,2013-02-04 06:11:00,
2013-02-04 01:18:00,18.0,10.5,29.88,SSW,192,17.0,33.0,72,0.00,,SKC,0.00,VWS V14.01,2013-02-04 06:18:00,
2013-02-04 01:24:00,18.0,10.2,29.88,South,184,22.0,45.0,71,0.00,,SKC,0.00,VWS V14.01,2013-02-04 06:24:00,
2013-02-04 01:30:00,18.0,9.9,29.88,SW,229,12.0,45.0,70,0.00,,SKC,0.00,VWS V14.01,2013-02-04 06:30:00,
2013-02-04 01:36:00,17.8,9.7,29.88,SSE,163,12.0,29.0,70,0.00,,SKC,0.00,VWS V14.01,2013-02-04 06:36:00,
2013-02-04 01:42:00,17.7,9.6,29.88,SSW,206,5.0,29.0,70,0.00,,SKC,0.00,VWS V14.01,2013-02-04 06:42:00,
2013-02-04 01:48:00,17.7,9.3,29.88,SW,214,11.0,21.0,69,0.00,,SKC,0.00,VWS V14.01,2013-02-04 06:48:00,
2013-02-04 01:54:00,17.5,9.1,29.88,SSE,155,16.0,24.0,69,0.00,,SKC,0.00,VWS V14.01,2013-02-04 06:54:00,
2013-02-04 02:00:00,17.5,9.1,29.88,South,169,6.0,25.0,69,0.00,,SKC,0.00,VWS V14.01,2013-02-04 07:00:00,
2013-02-04 02:06:00,17.5,8.8,29.87,SE,131,5.0,33.0,68,0.00,,SKC,0.00,VWS V14.01,2013-02-04 07:06:00,
2013-02-04 02:12:00,17.3,8.2,29.87,WSW,243,3.0,33.0,67,0.00,,SKC,0.00,VWS V14.01,2013-02-04 07:12:00,
2013-02-04 02:18:00,17.3,8.2,29.88,SW,236,14.0,25.0,67,0.00,,SKC,0.00,VWS V14.01,2013-02-04 07:18:00,
2013-02-04 02:24:00,17.3,7.9,29.88,SE,132,5.0,27.0,66,0.00,,SKC,0.00,VWS V14.01,2013-02-04 07:24:00,
2013-02-04 02:30:00,17.3,7.9,29.87,SW,219,6.0,27.0,66,0.00,,SKC,0.00,VWS V14.01,2013-02-04 07:30:00,
2013-02-04 02:36:00,17.3,8.2,29.87,South,188,11.0,25.0,67,0.00,,SKC,0.00,VWS V14.01,2013-02-04 07:36:00,
2013-02-04 02:42:00,17.2,8.1,29.87,SW,215,10.0,33.0,67,0.00,,SKC,0.00,VWS V14.01,2013-02-04 07:42:00,
2013-02-04 02:48:00,17.0,7.6,29.87,SE,146,7.0,22.0,66,0.00,,SKC,0.00,VWS V14.01,2013-02-04 07:48:00,
2013-02-04 02:54:00,17.0,7.9,29.87,SSW,194,11.0,31.0,67,0.00,,SKC,0.00,VWS V14.01,2013-02-04 07:54:00,
2013-02-04 03:00:00,16.9,7.8,29.87,SSW,203,14.0,31.0,67,0.00,,SKC,0.00,VWS V14.01,2013-02-04 08:00:00,
2013-02-04 03:06:00,16.7,8.0,29.87,South,188,10.0,18.0,68,0.00,,SKC,0.00,VWS V14.01,2013-02-04 08:06:00,
2013-02-04 03:12:00,16.5,7.8,29.87,SW,229,0.0,18.0,68,0.00,,SKC,0.00,VWS V14.01,2013-02-04 08:12:00,
2013-02-04 03:18:00,16.5,8.1,29.87,SSW,212,10.0,17.0,69,0.00,,SKC,0.00,VWS V14.01,2013-02-04 08:18:00,
2013-02-04 03:24:00,16.4,8.0,29.87,South,189,2.0,17.0,69,0.00,,SKC,0.00,VWS V14.01,2013-02-04 08:24:00,
2013-02-04 03:30:00,16.4,8.0,29.88,SSW,196,4.0,20.0,69,0.00,,SKC,0.00,VWS V14.01,2013-02-04 08:30:00,
2013-02-04 03:36:00,16.2,8.1,29.88,SW,231,2.0,18.0,70,0.00,,SKC,0.00,VWS V14.01,2013-02-04 08:36:00,
2013-02-04 03:42:00,16.2,8.1,29.88,SW,217,6.0,18.0,70,0.00,,SKC,0.00,VWS V14.01,2013-02-04 08:42:00,
2013-02-04 03:48:00,16.1,8.1,29.88,SW,226,7.0,12.0,70,0.00,,SKC,0.00,VWS V14.01,2013-02-04 08:48:00,
2013-02-04 03:54:00,16.1,8.1,29.88,SW,236,0.0,12.0,70,0.00,,SKC,0.00,VWS V14.01,2013-02-04 08:54:00,
2013-02-04 04:00:00,16.1,8.4,29.88,SW,219,10.0,21.0,71,0.00,,SKC,0.00,VWS V14.01,2013-02-04 09:00:00,
2013-02-04 04:06:00,16.2,8.1,29.88,SW,231,9.0,14.0,70,0.00,,SKC,0.00,VWS V14.01,2013-02-04 09:06:00,
2013-02-04 04:12:00,16.2,8.5,29.88,South,180,14.0,18.0,71,0.00,,SKC,0.00,VWS V14.01,2013-02-04 09:12:00,
2013-02-04 04:18:00,16.1,8.4,29.89,SW,214,5.0,18.0,71,0.00,,SKC,0.00,VWS V14.01,2013-02-04 09:18:00,
2013-02-04 04:24:00,16.1,8.4,29.89,South,191,11.0,18.0,71,0.00,,SKC,0.00,VWS V14.01,2013-02-04 09:24:00,
2013-02-04 04:30:00,16.1,8.4,29.90,SSW,193,9.0,19.0,71,0.00,,SKC,0.00,VWS V14.01,2013-02-04 09:30:00,
2013-02-04 04:36:00,16.1,8.4,29.90,SW,227,4.0,15.0,71,0.00,,SKC,0.00,VWS V14.01,2013-02-04 09:36:00,
2013-02-04 04:42:00,15.9,8.5,29.90,SSW,192,14.0,18.0,72,0.00,,SKC,0.00,VWS V14.01,2013-02-04 09:42:00,
2013-02-04 04:48:00,15.9,8.8,29.91,SSW,205,5.0,16.0,73,0.00,,SKC,0.00,VWS V14.01,2013-02-04 09:48:00,
2013-02-04 04:54:00,15.9,8.8,29.91,WSW,243,9.0,16.0,73,0.00,,SKC,0.00,VWS V14.01,2013-02-04 09:54:00,
2013-02-04 05:00:00,15.9,8.8,29.92,South,188,14.0,20.0,73,0.00,,SKC,0.00,VWS V14.01,2013-02-04 10:00:00,
2013-02-04 05:06:00,15.9,8.8,29.92,SSW,203,10.0,19.0,73,0.00,,SKC,0.00,VWS V14.01,2013-02-04 10:06:00,
2013-02-04 05:12:00,15.9,8.8,29.92,South,184,10.0,19.0,73,0.00,,SKC,0.00,VWS V14.01,2013-02-04 10:12:00,
2013-02-04 05:18:00,16.1,8.7,29.92,SW,229,10.0,10.0,72,0.00,,SKC,0.00,VWS V14.01,2013-02-04 10:18:00,
2013-02-04 05:24:00,16.1,8.7,29.92,SW,236,9.0,16.0,72,0.00,,SKC,0.00,VWS V14.01,2013-02-04 10:24:00,
2013-02-04 05:30:00,16.2,8.5,29.92,SSW,205,3.0,16.0,71,0.00,,SKC,0.00,VWS V14.01,2013-02-04 10:30:00,
2013-02-04 05:37:00,16.4,8.7,29.92,SW,224,5.0,12.0,71,0.00,,SKC,0.00,VWS V14.01,2013-02-04 10:37:00,
2013-02-04 05:43:00,16.7,8.3,29.92,SW,222,2.0,16.0,69,0.00,,SKC,0.00,VWS V14.01,2013-02-04 10:43:00,
2013-02-04 05:49:00,16.2,8.5,29.93,SSE,167,9.0,14.0,71,0.00,,SKC,0.00,VWS V14.01,2013-02-04 10:49:00,
2013-02-04 05:55:00,16.1,9.0,29.93,SSW,205,10.0,19.0,73,0.00,,SKC,0.00,VWS V14.01,2013-02-04 10:55:00,
2013-02-04 06:01:00,15.9,8.8,29.94,South,184,7.0,24.0,73,0.00,,SKC,0.00,VWS V14.01,2013-02-04 11:01:00,
2013-02-04 06:07:00,16.1,9.0,29.94,SW,214,10.0,23.0,73,0.00,,SKC,0.00,VWS V14.01,2013-02-04 11:07:00,
2013-02-04 06:13:00,15.9,8.8,29.94,SSW,211,16.0,23.0,73,0.00,,SKC,0.00,VWS V14.01,2013-02-04 11:13:00,
2013-02-04 06:19:00,16.2,8.8,29.95,SSW,211,3.0,21.0,72,0.00,,SKC,0.00,VWS V14.01,2013-02-04 11:19:00,
2013-02-04 06:25:00,16.2,8.8,29.95,SSW,206,9.0,21.0,72,0.00,,SKC,0.00,VWS V14.01,2013-02-04 11:25:00,
2013-02-04 06:31:00,16.5,8.8,29.96,SSW,208,3.0,21.0,71,0.00,,SKC,0.00,VWS V14.01,2013-02-04 11:31:00,
2013-02-04 06:37:00,16.7,8.6,29.96,SW,220,3.0,18.0,70,0.00,,SKC,0.00,VWS V14.01,2013-02-04 11:37:00,
2013-02-04 06:43:00,16.7,8.6,29.96,South,186,0.0,20.0,70,0.00,,SKC,0.00,VWS V14.01,2013-02-04 11:43:00,
2013-02-04 06:49:00,16.7,8.9,29.97,SSW,203,4.0,13.0,71,0.00,,SKC,0.00,VWS V14.01,2013-02-04 11:49:00,
2013-02-04 06:55:00,16.4,9.0,29.97,SSW,212,2.0,13.0,72,0.00,,SKC,0.00,VWS V14.01,2013-02-04 11:55:00,
2013-02-04 07:01:00,16.1,9.3,29.98,South,171,4.0,16.0,74,0.00,,SKC,0.00,VWS V14.01,2013-02-04 12:01:00,
2013-02-04 07:07:00,16.1,9.3,29.98,SW,233,1.0,15.0,74,0.00,,SKC,0.00,VWS V14.01,2013-02-04 12:07:00,
2013-02-04 07:13:00,16.1,9.3,29.98,SSW,196,5.0,18.0,74,0.00,,SKC,0.00,VWS V14.01,2013-02-04 12:13:00,
2013-02-04 07:19:00,16.4,9.3,29.97,SSE,150,11.0,15.0,73,0.00,,SKC,0.00,VWS V14.01,2013-02-04 12:19:00,
2013-02-04 07:25:00,16.5,9.4,29.97,SSE,167,3.0,16.0,73,0.00,,SKC,0.00,VWS V14.01,2013-02-04 12:25:00,
2013-02-04 07:31:00,16.9,9.1,29.98,SSW,197,5.0,17.0,71,0.00,,SKC,0.00,VWS V14.01,2013-02-04 12:31:00,
2013-02-04 07:37:00,16.9,9.1,29.98,SW,231,0.0,13.0,71,0.00,,SKC,0.00,VWS V14.01,2013-02-04 12:37:00,
2013-02-04 07:43:00,16.7,8.9,29.98,SW,225,4.0,25.0,71,0.00,,SKC,0.00,VWS V14.01,2013-02-04 12:43:00,
2013-02-04 07:49:00,16.7,9.3,29.99,SW,225,5.0,16.0,72,0.00,,SKC,0.00,VWS V14.01,2013-02-04 12:49:00,
2013-02-04 07:55:00,16.4,9.6,29.99,SSW,211,3.0,20.0,74,0.00,,SKC,0.00,VWS V14.01,2013-02-04 12:55:00,
2013-02-04 08:01:00,16.2,9.7,29.99,South,181,11.0,20.0,75,0.00,,SKC,0.00,VWS V14.01,2013-02-04 13:01:00,
2013-02-04 08:07:00,16.1,9.9,29.99,SSE,158,15.0,21.0,76,0.00,,SKC,0.00,VWS V14.01,2013-02-04 13:07:00,
2013-02-04 08:13:00,16.1,10.2,29.99,SSW,206,12.0,24.0,77,0.00,,SKC,0.00,VWS V14.01,2013-02-04 13:13:00,
2013-02-04 08:19:00,16.2,10.3,30.02,SSW,207,2.0,13.0,77,0.00,,SKC,0.00,VWS V14.01,2013-02-04 13:19:00,
2013-02-04 08:25:00,16.2,10.3,30.02,SW,236,3.0,18.0,77,0.00,,SKC,0.00,VWS V14.01,2013-02-04 13:25:00,
2013-02-04 08:31:00,16.4,10.5,30.02,SSW,202,1.0,18.0,77,0.00,,SKC,0.00,VWS V14.01,2013-02-04 13:31:00,
2013-02-04 08:37:00,16.7,10.8,30.02,SSW,198,4.0,15.0,77,0.00,,SKC,0.00,VWS V14.01,2013-02-04 13:37:00,
2013-02-04 08:43:00,16.7,10.5,30.02,SSW,203,6.0,20.0,76,0.00,,SKC,0.00,VWS V14.01,2013-02-04 13:43:00,
2013-02-04 08:49:00,16.9,10.4,30.02,SW,214,10.0,28.0,75,0.00,,SKC,0.00,VWS V14.01,2013-02-04 13:49:00,
2013-02-04 08:55:00,17.0,10.5,30.02,SSE,164,9.0,28.0,75,0.00,,SKC,0.00,VWS V14.01,2013-02-04 13:55:00,
2013-02-04 09:01:00,17.3,10.4,30.01,SSW,202,1.0,28.0,74,0.00,,SKC,0.00,VWS V14.01,2013-02-04 14:01:00,
2013-02-04 09:07:00,17.8,10.6,30.01,SSW,203,11.0,12.0,73,0.00,,SKC,0.00,VWS V14.01,2013-02-04 14:07:00,
2013-02-04 09:14:00,18.0,10.8,30.01,South,169,13.0,17.0,73,0.00,,SKC,0.00,VWS V14.01,2013-02-04 14:14:00,
2013-02-04 09:20:00,17.8,10.9,30.03,SW,219,3.0,18.0,74,0.00,,SKC,0.00,VWS V14.01,2013-02-04 14:20:00,
2013-02-04 09:26:00,18.1,10.6,30.03,SSW,204,6.0,20.0,72,0.00,,SKC,0.00,VWS V14.01,2013-02-04 14:26:00,
2013-02-04 09:31:00,18.4,10.6,30.02,SW,221,7.0,21.0,71,0.00,,SKC,0.00,VWS V14.01,2013-02-04 14:31:00,
2013-02-04 09:38:00,18.4,10.9,30.02,South,184,7.0,24.0,72,0.00,,SKC,0.00,VWS V14.01,2013-02-04 14:38:00,
2013-02-04 09:44:00,18.6,10.8,30.02,SW,217,13.0,25.0,71,0.00,,SKC,0.00,VWS V14.01,2013-02-04 14:44:00,
2013-02-04 09:50:00,18.4,10.9,30.03,SSW,213,11.0,20.0,72,0.00,,SKC,0.00,VWS V14.01,2013-02-04 14:50:00,
2013-02-04 09:56:00,18.8,10.6,30.03,SSW,207,14.0,23.0,70,0.00,,SKC,0.00,VWS V14.01,2013-02-04 14:56:00,
2013-02-04 10:02:00,19.1,10.6,30.01,SW,221,6.0,24.0,69,0.00,,SKC,0.00,VWS V14.01,2013-02-04 15:02:00,
2013-02-04 10:08:00,19.5,10.3,30.01,SSW,197,7.0,24.0,67,0.00,,SKC,0.00,VWS V14.01,2013-02-04 15:08:00,
2013-02-04 10:14:00,20.2,10.7,30.01,South,169,10.0,24.0,66,0.00,,SKC,0.00,VWS V14.01,2013-02-04 15:14:00,
2013-02-04 10:20:00,20.5,10.3,30.02,WSW,258,10.0,18.0,64,0.00,,SKC,0.00,VWS V14.01,2013-02-04 15:20:00,
2013-02-04 10:26:00,20.6,11.1,30.02,SSW,203,7.0,21.0,66,0.00,,SKC,0.00,VWS V14.01,2013-02-04 15:26:00,
2013-02-04 10:32:00,21.1,10.1,30.02,SW,236,14.0,16.0,62,0.00,,SKC,0.00,VWS V14.01,2013-02-04 15:32:00,
2013-02-04 10:38:00,21.6,10.2,30.02,SSW,207,5.0,17.0,61,0.00,,SKC,0.00,VWS V14.01,2013-02-04 15:38:00,
2013-02-04 10:45:00,22.2,10.8,30.01,SSW,206,11.0,23.0,61,0.00,,SKC,0.00,VWS V14.01,2013-02-04 15:45:00,
2013-02-04 10:51:00,22.2,10.4,30.01,South,182,12.0,20.0,60,0.00,,SKC,0.00,VWS V14.01,2013-02-04 15:51:00,
2013-02-04 10:57:00,22.4,11.0,30.01,SSW,213,3.0,23.0,61,0.00,,SKC,0.00,VWS V14.01,2013-02-04 15:57:00,
2013-02-04 11:05:00,23.9,11.7,30.01,SSW,207,13.0,15.0,59,0.00,,SKC,0.00,VWS V14.01,2013-02-04 16:05:00,
2013-02-04 11:11:00,24.5,11.9,30.01,SSW,207,1.0,16.0,58,0.00,,SKC,0.00,VWS V14.01,2013-02-04 16:11:00,
2013-02-04 11:21:00,25.0,11.9,30.00,South,181,4.0,5.0,57,0.00,,SKC,0.00,VWS V14.01,2013-02-04 16:21:00,
2013-02-04 11:27:00,25.8,12.7,30.00,SSE,164,9.0,9.0,57,0.00,,SKC,0.00,VWS V14.01,2013-02-04 16:27:00,
2013-02-04 11:33:00,26.3,12.3,30.00,SW,226,3.0,12.0,55,0.00,,SKC,0.00,VWS V14.01,2013-02-04 16:33:00,
2013-02-04 11:39:00,26.1,12.2,30.00,South,184,2.0,15.0,55,0.00,,SKC,0.00,VWS V14.01,2013-02-04 16:39:00,
2013-02-04 11:45:00,26.6,12.2,30.00,SW,219,6.0,12.0,54,0.00,,SKC,0.00,VWS V14.01,2013-02-04 16:45:00,
2013-02-04 11:51:00,27.0,12.2,30.00,West,269,6.0,15.0,53,0.00,,SKC,0.00,VWS V14.01,2013-02-04 16:51:00,
2013-02-04 11:57:00,27.3,12.4,30.00,West,262,4.0,15.0,53,0.00,,SKC,0.00,VWS V14.01,2013-02-04 16:57:00,
2013-02-04 12:03:00,27.8,12.9,29.99,West,262,0.0,4.0,53,0.00,,SKC,0.00,VWS V14.01,2013-02-04 17:03:00,
2013-02-04 12:09:00,27.8,13.3,29.99,WSW,258,4.0,17.0,54,0.00,,SKC,0.00,VWS V14.01,2013-02-04 17:09:00,
2013-02-04 12:16:00,27.9,14.2,29.99,SW,231,2.0,17.0,56,0.00,,SKC,0.00,VWS V14.01,2013-02-04 17:16:00,
2013-02-04 12:22:00,28.7,15.0,29.99,SW,235,0.0,7.0,56,0.00,,SKC,0.00,VWS V14.01,2013-02-04 17:22:00,
2013-02-04 12:28:00,28.7,14.6,29.99,WSW,237,1.0,9.0,55,0.00,,SKC,0.00,VWS V14.01,2013-02-04 17:28:00,
2013-02-04 12:34:00,28.8,15.1,29.99,SW,236,4.0,5.0,56,0.00,,SKC,0.00,VWS V14.01,2013-02-04 17:34:00,
2013-02-04 12:40:00,29.1,15.0,29.99,SW,220,7.0,10.0,55,0.00,,SKC,0.00,VWS V14.01,2013-02-04 17:40:00,
2013-02-04 12:46:00,29.5,14.1,29.97,WSW,239,2.0,14.0,52,0.00,,SKC,0.00,VWS V14.01,2013-02-04 17:46:00,
2013-02-04 12:59:00,29.8,13.9,29.97,SSW,212,0.0,14.0,51,0.00,,SKC,0.00,VWS V14.01,2013-02-04 17:59:00,
2013-02-04 13:05:00,30.4,14.4,29.96,SSW,212,2.0,5.0,51,0.00,,SKC,0.00,VWS V14.01,2013-02-04 18:05:00,
2013-02-04 13:16:00,30.1,14.6,29.96,SW,214,2.0,11.0,52,0.00,,SKC,0.00,VWS V14.01,2013-02-04 18:16:00,
2013-02-04 13:21:00,30.1,15.1,29.96,WSW,239,0.0,10.0,53,0.00,,SKC,0.00,VWS V14.01,2013-02-04 18:21:00,
2013-02-04 13:30:00,30.0,15.4,29.95,SW,226,0.0,10.0,54,0.00,,SKC,0.00,VWS V14.01,2013-02-04 18:30:00,
2013-02-04 13:36:00,30.3,15.7,29.95,SSW,204,11.0,12.0,54,0.00,,SKC,0.00,VWS V14.01,2013-02-04 18:36:00,
2013-02-04 13:46:00,30.6,15.5,29.94,South,188,2.0,16.0,53,0.00,,SKC,0.00,VWS V14.01,2013-02-04 18:46:00,
2013-02-04 13:52:00,30.6,15.9,29.94,SW,233,13.0,19.0,54,0.00,,SKC,0.00,VWS V14.01,2013-02-04 18:52:00,
2013-02-04 14:00:00,30.7,16.0,29.93,SW,236,9.0,15.0,54,0.00,,SKC,0.00,VWS V14.01,2013-02-04 19:00:00,
2013-02-04 14:03:00,30.7,15.2,29.93,SW,214,6.0,20.0,52,0.00,,SKC,0.00,VWS V14.01,2013-02-04 19:03:00,
2013-02-04 14:09:00,30.7,14.7,29.93,South,179,10.0,25.0,51,0.00,,SKC,0.00,VWS V14.01,2013-02-04 19:09:00,
2013-02-04 14:15:00,30.7,14.7,29.93,SW,235,10.0,26.0,51,0.00,,SKC,0.00,VWS V14.01,2013-02-04 19:15:00,
2013-02-04 14:25:00,30.7,15.2,29.93,East,98,9.0,25.0,52,0.00,,SKC,0.00,VWS V14.01,2013-02-04 19:25:00,
2013-02-04 14:30:00,31.0,15.9,29.93,South,169,11.0,29.0,53,0.00,,SKC,0.00,VWS V14.01,2013-02-04 19:30:00,
2013-02-04 14:31:00,31.0,15.9,29.93,SW,235,17.0,18.0,53,0.00,,SKC,0.00,VWS V14.01,2013-02-04 19:31:00,
2013-02-04 14:37:00,31.3,15.7,29.93,SW,227,12.0,22.0,52,0.00,,SKC,0.00,VWS V14.01,2013-02-04 19:37:00,
2013-02-04 14:43:00,31.8,16.2,29.93,SSW,193,7.0,22.0,52,0.00,,SKC,0.00,VWS V14.01,2013-02-04 19:43:00,
2013-02-04 14:45:00,31.8,15.8,29.92,SSW,203,6.0,23.0,51,0.00,,SKC,0.00,VWS V14.01,2013-02-04 19:45:00,
2013-02-04 14:49:00,31.9,16.7,29.92,SSW,207,4.0,18.0,53,0.00,,SKC,0.00,VWS V14.01,2013-02-04 19:49:00,
2013-02-04 14:56:00,32.2,16.6,29.92,SSW,204,2.0,29.0,52,0.00,,SKC,0.00,VWS V14.01,2013-02-04 19:56:00,
2013-02-04 15:00:00,32.5,16.8,29.91,SW,214,6.0,29.0,52,0.00,,SKC,0.00,VWS V14.01,2013-02-04 20:00:00,
2013-02-04 15:02:00,32.5,16.9,29.91,SSW,210,4.0,18.0,52,0.00,,SKC,0.00,VWS V14.01,2013-02-04 20:02:00,
2013-02-04 15:08:00,32.7,17.5,29.91,SSW,193,9.0,26.0,53,0.00,,SKC,0.00,VWS V14.01,2013-02-04 20:08:00,
2013-02-04 15:14:00,32.7,17.5,29.91,South,183,13.0,26.0,53,0.00,,SKC,0.00,VWS V14.01,2013-02-04 20:14:00,
2013-02-04 15:15:00,32.7,17.5,29.92,South,174,12.0,26.0,53,0.00,,SKC,0.00,VWS V14.01,2013-02-04 20:15:00,
2013-02-04 15:20:00,32.8,18.4,29.92,South,188,12.0,20.0,55,0.00,,SKC,0.00,VWS V14.01,2013-02-04 20:20:00,
2013-02-04 15:30:00,33.5,18.6,29.91,South,179,10.0,21.0,54,0.00,,SKC,0.00,VWS V14.01,2013-02-04 20:30:00,
2013-02-04 15:31:00,33.5,18.6,29.91,South,179,10.0,21.0,54,0.00,,SKC,0.00,VWS V14.01,2013-02-04 20:31:00,
2013-02-04 15:39:00,33.8,18.9,29.91,SSW,206,10.0,24.0,54,0.00,,SKC,0.00,VWS V14.01,2013-02-04 20:39:00,
2013-02-04 15:45:00,34.1,19.2,29.91,West,259,5.0,24.0,54,0.00,,SKC,0.00,VWS V14.01,2013-02-04 20:45:00,
2013-02-04 15:51:00,34.4,19.5,29.90,SW,227,4.0,25.0,54,0.00,,SKC,0.00,VWS V14.01,2013-02-04 20:51:00,
2013-02-04 15:57:00,34.7,19.8,29.90,SW,224,3.0,25.0,54,0.00,,SKC,0.00,VWS V14.01,2013-02-04 20:57:00,
2013-02-04 16:00:00,34.9,20.0,29.90,SSW,202,10.0,25.0,54,0.00,,SKC,0.00,VWS V14.01,2013-02-04 21:00:00,
2013-02-04 16:06:00,34.9,20.4,29.90,SW,229,6.0,15.0,55,0.00,,SKC,0.00,VWS V14.01,2013-02-04 21:06:00,
2013-02-04 16:12:00,34.9,20.0,29.90,SSW,206,2.0,15.0,54,0.00,,SKC,0.00,VWS V14.01,2013-02-04 21:12:00,
2013-02-04 16:15:00,34.7,20.2,29.90,SSW,211,2.0,15.0,55,0.00,,SKC,0.00,VWS V14.01,2013-02-04 21:15:00,
2013-02-04 16:18:00,34.6,20.1,29.90,SW,219,5.0,10.0,55,0.00,,SKC,0.00,VWS V14.01,2013-02-04 21:18:00,
2013-02-04 16:25:00,34.3,19.8,29.90,SSW,212,1.0,12.0,55,0.00,,SKC,0.00,VWS V14.01,2013-02-04 21:25:00,
2013-02-04 16:30:00,34.3,20.2,29.90,SSW,211,1.0,13.0,56,0.00,,SKC,0.00,VWS V14.01,2013-02-04 21:30:00,
2013-02-04 16:31:00,34.3,20.2,29.90,SSW,211,2.0,13.0,56,0.00,,SKC,0.00,VWS V14.01,2013-02-04 21:31:00,
2013-02-04 16:37:00,34.6,20.1,29.90,SSW,207,0.0,17.0,55,0.00,,SKC,0.00,VWS V14.01,2013-02-04 21:37:00,
2013-02-04 16:43:00,35.2,19.8,29.90,SSW,205,3.0,18.0,53,0.00,,SKC,0.00,VWS V14.01,2013-02-04 21:43:00,
2013-02-04 16:45:00,35.3,20.3,29.89,SSW,205,4.0,18.0,54,0.00,,SKC,0.00,VWS V14.01,2013-02-04 21:45:00,
2013-02-04 16:49:00,35.3,19.9,29.89,SSW,205,3.0,12.0,53,0.00,,SKC,0.00,VWS V14.01,2013-02-04 21:49:00,
2013-02-04 16:55:00,35.3,19.5,29.89,SW,233,4.0,16.0,52,0.00,,SKC,0.00,VWS V14.01,2013-02-04 21:55:00,
2013-02-04 17:00:00,35.3,19.9,29.89,SSW,202,5.0,16.0,53,0.00,,SKC,0.00,VWS V14.01,2013-02-04 22:00:00,
2013-02-04 17:01:00,35.3,19.9,29.89,SSW,202,5.0,16.0,53,0.00,,SKC,0.00,VWS V14.01,2013-02-04 22:01:00,
2013-02-04 17:07:00,35.0,20.0,29.89,South,191,6.0,14.0,54,0.00,,SKC,0.00,VWS V14.01,2013-02-04 22:07:00,
2013-02-04 17:13:00,34.7,20.2,29.89,SSW,210,0.0,14.0,55,0.00,,SKC,0.00,VWS V14.01,2013-02-04 22:13:00,
2013-02-04 17:15:00,34.6,19.7,29.89,SW,215,4.0,14.0,54,0.00,,SKC,0.00,VWS V14.01,2013-02-04 22:15:00,
2013-02-04 17:19:00,34.3,20.2,29.89,SSW,205,4.0,8.0,56,0.00,,SKC,0.00,VWS V14.01,2013-02-04 22:19:00,
2013-02-04 17:25:00,33.8,20.2,29.89,South,188,16.0,16.0,57,0.00,,SKC,0.00,VWS V14.01,2013-02-04 22:25:00,
2013-02-04 17:30:00,33.7,20.1,29.88,SSW,202,5.0,16.0,57,0.00,,SKC,0.00,VWS V14.01,2013-02-04 22:30:00,
2013-02-04 17:45:00,34.0,19.5,29.88,SSW,202,6.0,19.0,55,0.00,,SKC,0.00,VWS V14.01,2013-02-04 22:45:00,
2013-02-04 18:00:00,33.5,20.7,29.89,SSW,202,6.0,25.0,59,0.00,,SKC,0.00,VWS V14.01,2013-02-04 23:00:00,
2013-02-04 18:15:00,34.0,19.5,29.89,SSW,202,6.0,16.0,55,0.00,,SKC,0.00,VWS V14.01,2013-02-04 23:15:00,
2013-02-04 18:30:00,34.0,19.1,29.90,SSW,202,6.0,18.0,54,0.00,,SKC,0.00,VWS V14.01,2013-02-04 23:30:00,
2013-02-04 18:45:00,33.5,19.1,29.89,SSW,202,7.0,19.0,55,0.00,,SKC,0.00,VWS V14.01,2013-02-04 23:45:00,
2013-02-04 19:00:00,33.5,19.1,29.90,SSW,202,7.0,19.0,55,0.00,,SKC,0.00,VWS V14.01,2013-02-05 00:00:00,
2013-02-04 19:15:00,33.5,19.1,29.90,SSW,202,8.0,23.0,55,0.00,,SKC,0.00,VWS V14.01,2013-02-05 00:15:00,
2013-02-04 19:30:00,34.0,19.1,29.90,SSW,202,10.0,27.0,54,0.00,,SKC,0.00,VWS V14.01,2013-02-05 00:30:00,
2013-02-04 19:45:00,33.5,19.5,29.89,SSW,202,9.0,29.0,56,0.00,,SKC,0.00,VWS V14.01,2013-02-05 00:45:00,
2013-02-04 20:00:00,33.7,18.0,29.89,SSW,202,9.0,20.0,52,0.00,,SKC,0.00,VWS V14.01,2013-02-05 01:00:00,
2013-02-04 20:15:00,34.0,19.5,29.90,SSW,202,9.0,26.0,55,0.00,,SKC,0.00,VWS V14.01,2013-02-05 01:15:00,
2013-02-04 20:30:00,33.8,19.8,29.89,SSW,202,9.0,21.0,56,0.00,,SKC,0.00,VWS V14.01,2013-02-05 01:30:00,
2013-02-04 20:45:00,33.7,20.1,29.89,SSW,202,8.0,22.0,57,0.00,,SKC,0.00,VWS V14.01,2013-02-05 01:45:00,
2013-02-04 21:00:00,33.7,20.1,29.89,SSW,202,9.0,19.0,57,0.00,,SKC,0.00,VWS V14.01,2013-02-05 02:00:00,
2013-02-04 21:15:00,34.6,20.1,29.89,SSW,202,10.0,26.0,55,0.00,,SKC,0.00,VWS V14.01,2013-02-05 02:15:00,
2013-02-04 21:30:00,33.7,20.1,29.89,SSW,202,12.0,24.0,57,0.00,,SKC,0.00,VWS V14.01,2013-02-05 02:30:00,
2013-02-04 21:45:00,33.5,19.9,29.89,SSW,202,13.0,29.0,57,0.00,,SKC,0.00,VWS V14.01,2013-02-05 02:45:00,
2013-02-04 22:00:00,34.1,20.5,29.88,SSW,202,11.0,25.0,57,0.00,,SKC,0.00,VWS V14.01,2013-02-05 03:00:00,
2013-02-04 22:15:00,35.2,21.1,29.85,SSW,202,10.0,23.0,56,0.00,,SKC,0.00,VWS V14.01,2013-02-05 03:15:00,
2013-02-04 22:30:00,35.9,21.8,29.85,SSW,202,11.0,28.0,56,0.00,,SKC,0.00,VWS V14.01,2013-02-05 03:30:00,
2013-02-04 22:45:00,36.0,21.8,29.85,SSW,202,10.0,27.0,56,0.00,,SKC,0.00,VWS V14.01,2013-02-05 03:45:00,
2013-02-04 23:00:00,35.8,22.1,29.84,SW,225,10.0,23.0,57,0.00,,SKC,0.00,VWS V14.01,2013-02-05 04:00:00,
2013-02-04 23:15:00,36.2,22.5,29.82,SSW,202,9.0,19.0,57,0.00,,SKC,0.00,VWS V14.01,2013-02-05 04:15:00,
2013-02-04 23:30:00,36.6,22.0,29.81,SSW,202,10.0,27.0,55,0.00,,SKC,0.00,VWS V14.01,2013-02-05 04:30:00,
2013-02-04 23:45:00,36.9,21.4,29.80,SSW,202,13.0,33.0,53,0.00,,SKC,0.00,VWS V14.01,2013-02-05 04:45:00,